GW0312 Weather Reports


Display with metric or nautical units.
time (UTC)temp
F
wind
direction
speed
MPH
gust
MPH
rain 1hr
in
rain 24hr
in
rain mn
in
humidity
%
barometer
mb
20260510131557 59 49 8.0 14.0 0.00 0.01 0.00 77 1017.7
20260510130056 58 44 6.0 11.0 0.00 0.01 0.00 79 1017.5
20260510124603 58 323 5.0 11.0 0.00 0.01 0.00 80 1017.3
20260510123104 57 36 4.0 9.0 0.00 0.01 0.00 82 1017.1
20260510121555 56 19 3.0 6.0 0.00 0.01 0.00 83 1017.0
20260510120056 56 20 4.0 7.0 0.00 0.01 0.00 83 1016.9
20260510114557 56 17 4.0 8.0 0.00 0.01 0.00 83 1016.8
20260510113055 56 40 4.0 7.0 0.00 0.01 0.00 83 1016.3
20260510111557 56 340 3.0 5.0 0.00 0.01 0.00 81 1015.8
20260510110059 57 358 3.0 6.0 0.00 0.01 0.00 80 1015.8
20260510104556 57 27 4.0 8.0 0.00 0.01 0.00 78 1015.8
20260510103100 58 18 2.0 5.0 0.00 0.01 0.00 75 1015.6
20260510101607 58 55 2.0 5.0 0.00 0.01 0.00 75 1015.4
20260510094555 59 0 0.0 3.0 0.00 0.01 0.00 72 1015.0
20260510093059 60 49 3.0 5.0 0.00 0.01 0.00 70 1014.9
20260510091556 57 18 0.0 1.0 0.00 0.01 0.00 73 1014.8
20260510090057 56 0 0.0 0.0 0.00 0.01 0.00 76 1014.4
20260510084553 55 0 0.0 0.0 0.00 0.01 0.00 79 1014.1
20260510083055 55 0 0.0 1.0 0.00 0.01 0.00 80 1014.0
20260510081600 55 222 0.0 1.0 0.00 0.01 0.00 77 1014.4
20260510080055 55 0 0.0 1.0 0.00 0.01 0.00 77 1014.2
20260510074557 56 0 0.0 0.0 0.00 0.01 0.00 75 1014.1
20260510073105 55 0 0.0 2.0 0.00 0.01 0.00 75 1014.1
20260510071558 57 180 0.0 2.0 0.00 0.01 0.00 74 1014.0
20260510070055 55 274 0.0 3.0 0.00 0.01 0.00 76 1014.0
20260510064554 57 0 0.0 2.0 0.00 0.02 0.00 72 1014.0
20260510063053 59 0 0.0 1.0 0.00 0.02 0.00 72 1014.0
20260510061602 58 0 0.0 1.0 0.00 0.02 0.00 69 1014.2
20260510060055 61 0 0.0 2.0 0.00 0.02 0.00 67 1014.2
20260510054605 59 237 1.0 6.0 0.00 0.02 0.00 69 1014.2
20260510053056 58 0 0.0 1.0 0.00 0.02 0.00 71 1013.8
20260510051557 58 0 0.0 0.0 0.00 0.02 0.00 69 1013.4
20260510050059 58 0 0.0 1.0 0.00 0.02 0.00 69 1013.6
20260510044555 59 248 0.0 2.0 0.00 0.02 0.02 69 1013.7
20260510043056 58 0 0.0 0.0 0.00 0.02 0.02 71 1013.6
20260510041634 59 0 0.0 1.0 0.00 0.02 0.02 69 1013.3
20260510040053 59 211 0.0 2.0 0.00 0.02 0.02 68 1013.2
20260510034604 60 0 0.0 1.0 0.00 0.03 0.02 68 1013.3
20260510033113 60 0 0.0 0.0 0.00 0.03 0.02 68 1013.3
20260510031559 60 0 0.0 0.0 0.00 0.03 0.02 68 1013.2
20260510030056 61 0 0.0 2.0 0.00 0.03 0.02 66 1013.0
20260510024610 63 0 0.0 0.0 0.00 0.03 0.02 62 1012.5
20260510023059 63 0 0.0 0.0 0.00 0.03 0.02 61 1012.3
20260510021600 63 0 0.0 0.0 0.00 0.03 0.02 63 1012.2
20260510020110 64 0 0.0 0.0 0.00 0.03 0.02 64 1011.9
20260510014613 65 0 0.0 0.0 0.00 0.03 0.02 61 1011.6
20260510013103 67 0 0.0 0.0 0.00 0.03 0.02 57 1011.3
20260510011553 70 0 0.0 0.0 0.00 0.03 0.02 52 1011.2
20260510010101 73 0 0.0 0.0 0.00 0.03 0.02 47 1011.1
20260510004558 75 0 0.0 0.0 0.00 0.03 0.02 47 1011.0
20260510003053 75 0 0.0 0.0 0.00 0.03 0.02 52 1010.8
20260510001553 77 0 0.0 0.0 0.00 0.03 0.02 47 1010.8
20260510000054 77 0 0.0 1.0 0.00 0.03 0.02 50 1010.8
20260509234553 77 278 1.0 3.0 0.00 0.03 0.02 50 1010.8
20260509233056 78 319 1.0 3.0 0.00 0.03 0.02 45 1010.8
20260509231606 78 293 1.0 6.0 0.00 0.03 0.02 52 1010.8
20260509230058 78 295 2.0 6.0 0.00 0.03 0.02 48 1010.8
20260509224556 79 318 2.0 5.0 0.00 0.03 0.02 41 1010.8
20260509223055 79 320 2.0 8.0 0.00 0.03 0.02 42 1010.8
20260509221556 79 188 1.0 5.0 0.00 0.03 0.02 42 1010.7
20260509220057 79 322 5.0 8.0 0.00 0.03 0.02 42 1010.7
20260509214554 80 288 2.0 5.0 0.00 0.03 0.02 42 1010.7
20260509213057 80 274 1.0 4.0 0.00 0.03 0.02 42 1010.7
20260509211559 80 325 2.0 6.0 0.00 0.03 0.02 42 1010.6
20260509210108 80 44 0.0 4.0 0.00 0.03 0.02 43 1010.8
20260509204558 79 311 2.0 10.0 0.00 0.03 0.02 41 1011.0
20260509203056 77 62 3.0 7.0 0.00 0.03 0.02 46 1011.1
20260509201553 79 311 7.0 11.0 0.00 0.03 0.02 42 1011.3
20260509200056 78 312 6.0 10.0 0.00 0.03 0.02 37 1011.4
20260509194555 80 323 2.0 8.0 0.00 0.03 0.02 41 1011.4
20260509193053 79 293 4.0 7.0 0.00 0.03 0.02 43 1011.3
20260509191556 78 288 5.0 8.0 0.00 0.03 0.02 45 1011.3
20260509190057 78 258 3.0 8.0 0.00 0.03 0.02 50 1011.4
20260509184556 79 335 1.0 7.0 0.00 0.03 0.02 40 1011.2
20260509183059 78 356 0.0 7.0 0.00 0.03 0.02 42 1011.2
20260509181600 78 354 2.0 8.0 0.00 0.03 0.02 43 1011.3
20260509180057 77 0 0.0 11.0 0.00 0.03 0.02 50 1011.5
20260509174557 77 285 5.0 9.0 0.00 0.03 0.02 54 1011.5
20260509173119 77 326 4.0 8.0 0.00 0.03 0.02 48 1011.8
20260509171553 76 324 2.0 12.0 0.00 0.03 0.02 53 1011.9
20260509170109 76 310 3.0 8.0 0.00 0.03 0.02 51 1011.8
20260509164558 76 305 4.0 9.0 0.00 0.03 0.02 55 1011.7
20260509163055 75 12 4.0 11.0 0.00 0.03 0.02 51 1011.7
20260509161554 74 356 4.0 9.0 0.00 0.03 0.02 55 1011.8
20260509160054 73 309 4.0 10.0 0.00 0.03 0.02 62 1011.8
20260509154557 72 290 4.0 8.0 0.00 0.03 0.02 64 1011.7
20260509153053 71 327 4.0 7.0 0.00 0.03 0.02 63 1011.8
20260509151616 70 313 5.0 8.0 0.00 0.03 0.02 67 1011.8
20260509150055 69 320 5.0 7.0 0.00 0.03 0.02 68 1011.6
20260509144556 68 309 5.0 8.0 0.00 0.03 0.02 72 1011.7
20260509143104 67 286 4.0 8.0 0.00 0.03 0.02 76 1011.4
20260509141556 65 288 5.0 8.0 0.00 0.03 0.02 79 1011.5
20260509140054 64 292 5.0 9.0 0.01 0.03 0.02 82 1011.5
20260509134559 62 310 4.0 7.0 0.01 0.03 0.02 84 1011.3
20260509133053 60 276 5.0 7.0 0.01 0.03 0.02 87 1011.2